Вернуться в каталог

DELTA 1 DEB

АктивенUNKNOWN
NORAD 10762·DEBRIS·🇺🇸 United States

Запущен Jul 29, 1976 с Vandenberg Space Force Base

Loading…

Ближайшие Пролёты (ближайшие 24 часа)

TLE

СвежийSource: Space-Track

Эпоха: Sep 14, 2026, 10:12 UTC

1 10762U 76077BK  26257.42525540 -.00000591  00000-0 -54687-2 0  9991
2 10762 102.6433 326.5490 0673250 176.0189 184.6572 11.70146932605144

Отслеживайте DELTA 1 DEB в реальном времени с AllMySat

Download on the App Store